When you browse on this site, cookies collect data to enhance your experience and personalize the content and advertising you see.
Visit our Privacy Policy to learn more. By continuing to use the site, you agree to this use of cookies and data.
  • In Hungary
  • List of Countries
  • For 7 days
  • Water Temperature
  • Weather Map
  • News
  • Weather Widgets
  • user-avatar
    Login

    Hourly Weather Tambakonda

    Today, 13 November, Wednesday

    Time Temperature Precipitation Wind Pressure Humidity
    00:00 +29°C° 0 mm 1 mps 731 mmHg 30%
    01:00 +27°C° 0 mm 0 mps 730 mmHg 31%
    02:00 +27°C° 0 mm 0 mps 730 mmHg 31%
    03:00 +29°C° 0 mm 1 mps 730 mmHg 30%
    04:00 +29°C° 0 mm 1 mps 730 mmHg 30%
    05:00 +29°C° 0 mm 1 mps 731 mmHg 30%
    06:00 +29°C° 0 mm 1 mps 731 mmHg 29%
    07:00 +30°C° 0 mm 1 mps 732 mmHg 29%
    08:00 +32°C° 0 mm 1 mps 732 mmHg 26%
    09:00 +34°C° 0 mm 2 mps 732 mmHg 24%
    10:00 +36°C° 0 mm 2 mps 732 mmHg 21%
    11:00 +37°C° 0 mm 2 mps 732 mmHg 21%
    12:00 +37°C° 0 mm 2 mps 731 mmHg 21%
    13:00 +38°C° 0 mm 2 mps 730 mmHg 20%
    14:00 +37°C° 0 mm 3 mps 730 mmHg 20%
    15:00 +37°C° 0 mm 3 mps 730 mmHg 21%
    16:00 +36°C° 0 mm 4 mps 729 mmHg 21%
    17:00 +35°C° 0 mm 4 mps 730 mmHg 22%
    18:00 +34°C° 0 mm 4 mps 730 mmHg 24%
    19:00 +33°C° 0 mm 4 mps 731 mmHg 26%
    20:00 +33°C° 0 mm 3 mps 731 mmHg 26%
    21:00 +33°C° 0 mm 3 mps 731 mmHg 27%
    22:00 +31°C° 0 mm 2 mps 732 mmHg 27%
    23:00 +31°C° 0 mm 3 mps 731 mmHg 27%

    Tomorrow, 14 November, Thursday

    Time Temperature Precipitation Wind Pressure Humidity
    00:00 +32°C° 0 mm 4 mps 731 mmHg 27%
    01:00 +30°C° 0 mm 4 mps 731 mmHg 27%
    02:00 +30°C° 0 mm 4 mps 731 mmHg 32%
    03:00 +29°C° 0 mm 4 mps 731 mmHg 36%
    04:00 +28°C° 0 mm 4 mps 731 mmHg 40%
    05:00 +28°C° 0 mm 5 mps 731 mmHg 40%
    06:00 +28°C° 0 mm 5 mps 732 mmHg 40%
    07:00 +29°C° 0 mm 5 mps 732 mmHg 40%
    08:00 +30°C° 0 mm 5 mps 733 mmHg 34%
    09:00 +33°C° 0 mm 5 mps 733 mmHg 28%
    10:00 +34°C° 0 mm 5 mps 733 mmHg 22%
    11:00 +35°C° 0 mm 5 mps 732 mmHg 21%
    12:00 +36°C° 0 mm 4 mps 731 mmHg 19%
    13:00 +36°C° 0 mm 3 mps 731 mmHg 17%
    14:00 +36°C° 0 mm 3 mps 730 mmHg 17%
    15:00 +36°C° 0 mm 2 mps 730 mmHg 17%
    16:00 +35°C° 0 mm 1 mps 730 mmHg 16%
    17:00 +34°C° 0 mm 1 mps 730 mmHg 17%
    18:00 +32°C° 0 mm 1 mps 731 mmHg 19%
    19:00 +30°C° 0 mm 1 mps 731 mmHg 20%
    20:00 +30°C° 0 mm 2 mps 731 mmHg 20%
    21:00 +30°C° 0 mm 3 mps 732 mmHg 21%
    22:00 +30°C° 0 mm 4 mps 732 mmHg 21%
    23:00 +30°C° 0 mm 5 mps 732 mmHg 26%

    Day after tomorrow, 15 November, Friday

    Time Temperature Precipitation Wind Pressure Humidity
    00:00 +29°C° 0 mm 5 mps 732 mmHg 32%
    01:00 +29°C° 0 mm 5 mps 732 mmHg 37%
    02:00 +28°C° 0 mm 5 mps 732 mmHg 39%
    03:00 +28°C° 0 mm 5 mps 731 mmHg 41%
    04:00 +27°C° 0 mm 5 mps 731 mmHg 43%
    05:00 +27°C° 0 mm 5 mps 732 mmHg 43%
    06:00 +27°C° 0 mm 5 mps 732 mmHg 44%
    07:00 +27°C° 0 mm 5 mps 732 mmHg 45%
    08:00 +29°C° 0 mm 5 mps 732 mmHg 39%
    09:00 +30°C° 0 mm 6 mps 732 mmHg 34%
    10:00 +33°C° 0 mm 6 mps 733 mmHg 28%
    11:00 +34°C° 0 mm 6 mps 732 mmHg 25%
    12:00 +34°C° 0 mm 5 mps 731 mmHg 23%
    13:00 +35°C° 0 mm 4 mps 730 mmHg 20%
    14:00 +35°C° 0 mm 3 mps 730 mmHg 20%
    15:00 +35°C° 0 mm 3 mps 730 mmHg 20%
    16:00 +35°C° 0 mm 2 mps 729 mmHg 20%
    17:00 +32°C° 0 mm 2 mps 730 mmHg 22%
    18:00 +30°C° 0 mm 1 mps 730 mmHg 25%
    19:00 +28°C° 0 mm 1 mps 730 mmHg 28%
    20:00 +29°C° 0 mm 1 mps 731 mmHg 26%
    21:00 +29°C° 0 mm 2 mps 731 mmHg 24%
    22:00 +29°C° 0 mm 2 mps 731 mmHg 22%
    23:00 +29°C° 0 mm 3 mps 731 mmHg 25%

    16 November, Saturday

    Time Temperature Precipitation Wind Pressure Humidity
    00:00 +29°C° 0 mm 4 mps 731 mmHg 27%
    01:00 +28°C° 0 mm 4 mps 731 mmHg 30%
    02:00 +28°C° 0 mm 4 mps 731 mmHg 34%
    03:00 +28°C° 0 mm 4 mps 731 mmHg 38%
    04:00 +27°C° 0 mm 5 mps 731 mmHg 42%
    05:00 +27°C° 0 mm 5 mps 731 mmHg 43%
    06:00 +27°C° 0 mm 5 mps 731 mmHg 44%
    07:00 +27°C° 0 mm 5 mps 732 mmHg 45%
    08:00 +29°C° 0 mm 5 mps 732 mmHg 39%
    09:00 +30°C° 0 mm 5 mps 732 mmHg 33%
    10:00 +33°C° 0 mm 5 mps 732 mmHg 28%
    11:00 +33°C° 0 mm 5 mps 732 mmHg 26%
    12:00 +34°C° 0 mm 4 mps 731 mmHg 23%
    13:00 +35°C° 0 mm 3 mps 730 mmHg 21%
    14:00 +35°C° 0 mm 3 mps 730 mmHg 21%
    15:00 +35°C° 0 mm 2 mps 729 mmHg 20%
    16:00 +35°C° 0 mm 1 mps 729 mmHg 20%
    17:00 +33°C° 0 mm 1 mps 729 mmHg 22%
    18:00 +31°C° 0 mm 1 mps 729 mmHg 23%
    19:00 +29°C° 0 mm 1 mps 730 mmHg 25%
    20:00 +30°C° 0 mm 2 mps 730 mmHg 24%
    21:00 +30°C° 0 mm 2 mps 730 mmHg 23%
    22:00 +30°C° 0 mm 3 mps 731 mmHg 22%
    23:00 +30°C° 0 mm 4 mps 730 mmHg 26%

    17 November, Sunday

    Time Temperature Precipitation Wind Pressure Humidity
    00:00 +29°C° 0 mm 4 mps 730 mmHg 30%
    01:00 +29°C° 0 mm 4 mps 730 mmHg 34%
    02:00 +29°C° 0 mm 4 mps 730 mmHg 37%
    03:00 +28°C° 0 mm 4 mps 730 mmHg 39%
    04:00 +28°C° 0 mm 4 mps 730 mmHg 41%
    05:00 +28°C° 0 mm 4 mps 731 mmHg 42%
    06:00 +28°C° 0 mm 4 mps 731 mmHg 43%
    07:00 +28°C° 0 mm 4 mps 731 mmHg 44%
    08:00 +30°C° 0 mm 4 mps 732 mmHg 38%
    09:00 +33°C° 0 mm 4 mps 732 mmHg 32%
    10:00 +35°C° 0 mm 5 mps 732 mmHg 26%
    11:00 +35°C° 0 mm 4 mps 732 mmHg 25%
    12:00 +36°C° 0 mm 4 mps 731 mmHg 24%
    13:00 +36°C° 0 mm 3 mps 730 mmHg 22%
    14:00 +36°C° 0 mm 3 mps 730 mmHg 22%
    15:00 +37°C° 0 mm 2 mps 730 mmHg 21%
    16:00 +37°C° 0 mm 2 mps 729 mmHg 21%
    17:00 +34°C° 0 mm 1 mps 730 mmHg 23%
    18:00 +32°C° 0 mm 1 mps 730 mmHg 26%
    19:00 +28°C° 0 mm 0 mps 730 mmHg 28%
    20:00 +30°C° 0 mm 1 mps 730 mmHg 27%
    21:00 +30°C° 0 mm 1 mps 731 mmHg 26%
    22:00 +30°C° 0 mm 2 mps 731 mmHg 24%
    23:00 +30°C° 0 mm 3 mps 731 mmHg 25%

    18 November, Monday

    Time Temperature Precipitation Wind Pressure Humidity
    00:00 +30°C° 0 mm 3 mps 731 mmHg 25%
    01:00 +30°C° 0 mm 4 mps 731 mmHg 25%
    02:00 +29°C° 0 mm 4 mps 731 mmHg 29%
    03:00 +29°C° 0 mm 4 mps 731 mmHg 33%
    04:00 +28°C° 0 mm 4 mps 730 mmHg 37%
    05:00 +28°C° 0 mm 4 mps 731 mmHg 38%
    06:00 +29°C° 0 mm 4 mps 731 mmHg 39%
    07:00 +29°C° 0 mm 4 mps 732 mmHg 40%
    08:00 +32°C° 0 mm 4 mps 732 mmHg 35%
    09:00 +33°C° 0 mm 4 mps 732 mmHg 30%
    10:00 +35°C° 0 mm 4 mps 733 mmHg 25%
    11:00 +36°C° 0 mm 4 mps 732 mmHg 24%
    12:00 +36°C° 0 mm 3 mps 731 mmHg 23%
    13:00 +37°C° 0 mm 3 mps 731 mmHg 22%
    14:00 +37°C° 0 mm 2 mps 730 mmHg 22%
    15:00 +37°C° 0 mm 2 mps 730 mmHg 22%
    16:00 +36°C° 0 mm 1 mps 730 mmHg 22%
    17:00 +34°C° 0 mm 1 mps 730 mmHg 25%
    18:00 +32°C° 0 mm 1 mps 730 mmHg 28%
    19:00 +28°C° 0 mm 0 mps 731 mmHg 31%
    20:00 +30°C° 0 mm 1 mps 731 mmHg 29%
    21:00 +30°C° 0 mm 2 mps 731 mmHg 28%
    22:00 +30°C° 0 mm 2 mps 732 mmHg 26%
    23:00 +30°C° 0 mm 3 mps 732 mmHg 27%
    Show more